Simultaneous Nadir Overpasses (SNOs) Predictions

Prediction of SNOs between METOP-C and LANDSAT-8 Satellite Orbit:

Table of predicted SNOs for the next 14.0 days since TLE Epoch: 8/24/2024
Index Date (METOP-C) Time (METOP-C) Lat,Lon (METOP-C) SZA (METOP-C ) Date (LANDSAT-8) Time (LANDSAT-8) Lat,Lon (LANDSAT-8) SZA (LANDSAT-8 ) Distance(km) Time Diff (sec)
1 08/26/2024 05:33:00 -81.08, -44.19 107.18 08/26/2024 05:33:46 -81.08, -44.16 107.16 0.66 46
2 08/26/2024 06:23:39 81.10, 123.86 72.93 08/26/2024 06:23:11 81.10, 123.92 72.92 1.06 28
3 08/29/2024 01:07:19 -81.10, 22.71 106.11 08/29/2024 01:07:59 -81.10, 22.62 106.10 1.59 40
4 08/29/2024 01:57:58 81.12,-169.23 74.00 08/29/2024 01:57:24 81.12,-169.34 73.98 1.81 34
5 08/31/2024 20:41:39 -81.09, 89.10 105.08 08/31/2024 20:42:12 -81.09, 89.01 105.08 1.42 33
6 08/31/2024 21:32:18 81.12,-102.84 75.03 08/31/2024 21:31:37 81.12,-102.97 74.99 2.33 41
7 09/03/2024 16:15:58 -81.09, 155.35 104.06 09/03/2024 16:16:23 -81.09, 155.40 104.04 0.83 25
8 09/03/2024 17:06:37 81.11, -36.59 76.05 09/03/2024 17:05:48 81.11, -36.62 76.03 0.80 49
9 09/06/2024 11:50:16 -81.10,-137.79 102.94 09/06/2024 11:50:33 -81.11,-137.87 102.94 1.53 17



Historial Predications of SNOs between METOP-C and LANDSAT-8
